COSMOS 1536

Last updated on Tue Jul 01 2025 00:02:13 GMT+0000 (Coordinated Universal Time)

1 14699U 84013A 25181.55375658 .00003919 00000+0 18001-3 0 9990 2 14699 82.5474 357.6275 0017243 85.6747 274.6458 15.19967643234275
UTC large
Height (km)
Speed (km/s)
/
Latitude / Longitude
Inclination (degrees)
Orbital Period (minutes)
Azimuth
Elevation
Range (km)
Doppler Factor

Next 0 passes for location: London (51.5072 / 0.1276)

Sorry there are no passes over London.